GW5034 Weather Reports


time (UTC)temp
C
wind
direction
speed
KPH
gust
KPH
rain 1hr
cm
rain 24hr
cm
rain mn
cm
humidity
%
barometer
mb
20260503072050 8 93 4.8 6.4 0.00 0.00 0.00 63 1010.5
20260503071529 8 92 4.8 6.4 0.00 0.00 0.00 60 1010.4
20260503071108 8 104 3.2 4.8 0.00 0.00 0.00 59 1010.5
20260503070526 8 98 4.8 4.8 0.00 0.00 0.00 61 1010.5
20260503070105 8 98 4.8 6.4 0.00 0.00 0.00 63 1010.6
20260503060108 8 94 4.8 6.4 0.00 0.00 0.00 64 1011.3
20260503055025 8 98 4.8 4.8 0.00 0.00 0.00 57 1011.6
20260503054604 7 101 4.8 4.8 0.00 0.00 0.00 59 1011.6
20260503054042 7 102 4.8 6.4 0.00 0.00 0.00 61 1011.6
20260503053601 7 99 4.8 6.4 0.00 0.00 0.00 58 1011.6
20260503053019 7 97 4.8 6.4 0.00 0.00 0.00 60 1011.7
20260503052538 7 97 4.8 6.4 0.00 0.00 0.00 60 1011.7
20260503052016 7 96 4.8 6.4 0.00 0.00 0.00 62 1011.9
20260503051535 7 100 4.8 4.8 0.00 0.00 0.00 60 1011.8
20260503051033 7 101 4.8 4.8 0.00 0.00 0.00 63 1011.9
20260503050552 7 94 3.2 4.8 0.00 0.00 0.00 64 1011.9
20260503050050 7 96 3.2 3.2 0.00 0.00 0.00 65 1011.9
20260503045529 7 97 3.2 4.8 0.00 0.00 0.00 66 1011.9
20260503045027 7 97 3.2 4.8 0.00 0.00 0.00 67 1012.0
20260503044526 7 101 3.2 3.2 0.00 0.00 0.00 68 1012.1
20260503044044 7 95 3.2 4.8 0.00 0.00 0.00 71 1012.0
20260503043523 7 90 3.2 3.2 0.00 0.00 0.00 67 1012.0
20260503043022 7 95 4.8 6.4 0.00 0.00 0.00 60 1012.1
20260503042540 7 97 4.8 4.8 0.00 0.00 0.00 61 1012.1
20260503042019 7 97 4.8 4.8 0.00 0.00 0.00 60 1012.2
20260503041517 7 97 4.8 4.8 0.00 0.00 0.00 62 1012.2
20260503041036 7 96 4.8 6.4 0.00 0.00 0.00 61 1012.3
20260503040534 8 98 4.8 4.8 0.00 0.00 0.00 56 1012.2
20260503040033 7 98 4.8 4.8 0.00 0.00 0.00 54 1012.2
20260503035532 7 96 4.8 4.8 0.00 0.00 0.00 54 1012.5
20260503035030 7 96 4.8 4.8 0.00 0.00 0.00 55 1012.5
20260503034549 7 94 4.8 4.8 0.00 0.00 0.00 57 1012.6
20260503034027 7 97 4.8 6.4 0.00 0.00 0.00 57 1012.6
20260503033526 7 100 4.8 4.8 0.00 0.00 0.00 54 1012.7
20260503033024 7 103 4.8 6.4 0.00 0.00 0.00 55 1012.7
20260503032523 7 104 4.8 4.8 0.00 0.00 0.00 58 1012.7
20260503032021 7 103 4.8 6.4 0.00 0.00 0.00 60 1012.7
20260503031520 7 102 4.8 6.4 0.00 0.00 0.00 60 1012.7
20260503031018 7 100 4.8 6.4 0.00 0.00 0.00 61 1012.8
20260503030517 7 102 4.8 6.4 0.00 0.00 0.00 57 1012.9
20260503030015 7 101 4.8 6.4 0.00 0.00 0.00 56 1013.0
20260503025534 7 103 4.8 6.4 0.00 0.00 0.00 54 1013.0
20260503025032 7 103 4.8 6.4 0.00 0.00 0.00 52 1013.0
20260503024531 7 101 4.8 4.8 0.00 0.00 0.00 51 1013.1
20260503024030 7 106 4.8 4.8 0.00 0.00 0.00 53 1013.1
20260503023529 7 104 4.8 4.8 0.00 0.00 0.00 55 1013.2
20260503023027 7 101 4.8 6.4 0.00 0.00 0.00 59 1013.2
20260503022546 8 98 4.8 6.4 0.00 0.00 0.00 53 1013.2
20260503022024 7 98 4.8 6.4 0.00 0.00 0.00 57 1013.3
20260503021523 8 99 4.8 6.4 0.00 0.00 0.00 60 1013.4
20260503021021 8 101 4.8 6.4 0.00 0.00 0.00 54 1013.3
20260503020519 8 99 4.8 6.4 0.00 0.00 0.00 51 1013.3
20260503020018 8 102 4.8 6.4 0.00 0.00 0.00 50 1013.3
20260503015516 8 105 4.8 6.4 0.00 0.00 0.00 50 1013.4
20260503015035 8 106 4.8 6.4 0.00 0.00 0.00 50 1013.5
20260503014534 8 101 4.8 6.4 0.00 0.00 0.00 51 1013.3
20260503014032 8 103 4.8 6.4 0.00 0.00 0.00 54 1013.3
20260503013531 9 99 4.8 6.4 0.00 0.00 0.00 55 1013.4
20260503013050 9 97 4.8 6.4 0.00 0.00 0.00 50 1013.4
20260503012528 10 97 4.8 4.8 0.00 0.00 0.00 48 1013.4
20260503012047 10 95 4.8 6.4 0.00 0.00 0.00 46 1013.3
20260503011525 10 104 4.8 6.4 0.00 0.00 0.00 43 1013.4
20260503011024 11 106 3.2 4.8 0.00 0.00 0.00 41 1013.3
20260503010522 11 96 3.2 4.8 0.00 0.00 0.00 42 1013.4
20260503010021 11 98 4.8 6.4 0.00 0.00 0.00 39 1013.4
20260503005519 11 99 4.8 6.4 0.00 0.00 0.00 39 1013.4
20260503005018 12 96 4.8 8.0 0.00 0.00 0.00 37 1013.3
20260503004516 12 96 4.8 6.4 0.00 0.00 0.00 36 1013.3
20260503004015 12 90 4.8 6.4 0.00 0.00 0.00 36 1013.4
20260503003534 12 93 4.8 8.0 0.00 0.00 0.00 35 1013.4
20260503003053 12 97 4.8 6.4 0.00 0.00 0.00 35 1013.5
20260503002531 12 97 4.8 8.0 0.00 0.00 0.00 35 1013.5
20260503002029 12 97 6.4 8.0 0.00 0.00 0.00 35 1013.4
20260503001548 13 92 8.0 17.7 0.00 0.00 0.00 33 1013.5
20260503001027 12 100 4.8 8.0 0.00 0.00 0.00 34 1013.6
20260503000525 13 95 6.4 12.9 0.00 0.00 0.00 34 1013.5
20260503000024 13 90 4.8 8.0 0.00 0.00 0.00 33 1013.6
20260502235603 13 93 4.8 8.0 0.00 0.00 0.00 34 1013.6
20260502235021 13 110 6.4 9.7 0.00 0.00 0.00 34 1013.6
20260502234519 13 87 6.4 9.7 0.00 0.00 0.00 33 1013.6
20260502234018 13 95 6.4 16.1 0.00 0.00 0.00 33 1013.6
20260502233517 13 90 8.0 16.1 0.00 0.00 0.00 33 1013.6
20260502233015 13 86 6.4 9.7 0.00 0.00 0.00 33 1013.7
20260502232534 13 98 6.4 9.7 0.00 0.00 0.00 33 1013.8
20260502232033 13 87 6.4 11.3 0.00 0.00 0.00 32 1013.7
20260502231531 14 112 6.4 12.9 0.00 0.00 0.00 32 1013.7
20260502231029 13 94 6.4 9.7 0.00 0.00 0.00 32 1013.8
20260502230528 13 95 6.4 16.1 0.00 0.00 0.00 32 1013.9
20260502230027 13 103 8.0 16.1 0.00 0.00 0.00 32 1013.9
20260502225525 14 101 6.4 12.9 0.00 0.00 0.00 32 1013.9
20260502225024 14 87 6.4 9.7 0.00 0.00 0.00 32 1013.9
20260502224523 15 97 6.4 16.1 0.00 0.00 0.00 32 1014.0
20260502224041 15 95 4.8 9.7 0.00 0.00 0.00 30 1014.0
20260502223519 15 102 4.8 11.3 0.00 0.00 0.00 32 1014.0
20260502223038 14 92 6.4 8.0 0.00 0.00 0.00 32 1014.0
20260502222517 14 92 8.0 16.1 0.00 0.00 0.00 31 1014.2
20260502222035 15 96 6.4 11.3 0.00 0.00 0.00 30 1014.1
20260502221534 15 85 9.7 17.7 0.00 0.00 0.00 30 1014.1
20260502221032 15 70 4.8 6.4 0.00 0.00 0.00 32 1014.1
20260502220531 15 71 3.2 8.0 0.00 0.00 0.00 31 1014.3
20260502220029 15 108 4.8 9.7 0.00 0.00 0.00 30 1014.4
20260502215528 15 93 6.4 17.7 0.00 0.00 0.00 30 1014.3
20260502215027 15 96 8.0 12.9 0.00 0.00 0.00 30 1014.5
20260502214525 14 98 6.4 11.3 0.00 0.00 0.00 30 1014.5
20260502214024 13 84 8.0 20.9 0.00 0.00 0.00 31 1014.6
20260502213522 14 95 9.7 17.7 0.00 0.00 0.00 31 1014.6
20260502213021 13 87 4.8 9.7 0.00 0.00 0.00 31 1014.6
20260502212519 13 91 6.4 11.3 0.00 0.00 0.00 31 1014.7
20260502212018 15 95 8.0 16.1 0.00 0.00 0.00 29 1014.7
20260502211516 15 92 6.4 9.7 0.00 0.00 0.00 29 1014.8
20260502211035 15 110 4.8 9.7 0.00 0.00 0.00 30 1014.9
20260502210534 14 100 4.8 9.7 0.00 0.00 0.00 30 1014.8
20260502210032 15 93 4.8 8.0 0.00 0.00 0.00 30 1014.9
20260502205531 15 97 4.8 9.7 0.00 0.00 0.00 29 1015.0
20260502205029 15 80 6.4 11.3 0.00 0.00 0.00 29 1015.0
20260502204528 15 81 6.4 16.1 0.00 0.00 0.00 30 1015.1
20260502204148 15 93 8.0 16.1 0.00 0.00 0.00 29 1015.1
20260502203525 15 101 6.4 12.9 0.00 0.00 0.00 30 1015.3
20260502203024 13 97 4.8 9.7 0.00 0.00 0.00 30 1015.4
20260502202603 13 92 6.4 11.3 0.00 0.00 0.00 31 1015.4
20260502202021 14 102 6.4 14.5 0.00 0.00 0.00 31 1015.4
20260502201520 15 99 8.0 14.5 0.00 0.00 0.00 30 1015.5
20260502201038 15 112 4.8 11.3 0.00 0.00 0.00 30 1015.6
20260502200516 14 90 8.0 14.5 0.00 0.00 0.00 29 1015.7
20260502200015 14 92 8.0 20.9 0.00 0.00 0.00 29 1015.7
20260502195534 15 86 8.0 22.5 0.00 0.00 0.00 29 1015.6
20260502195032 15 90 6.4 14.5 0.00 0.00 0.00 29 1015.8
20260502194531 15 100 4.8 9.7 0.00 0.00 0.00 30 1016.0
20260502194049 14 87 8.0 16.1 0.00 0.00 0.00 29 1016.0
20260502193528 14 71 6.4 9.7 0.00 0.00 0.00 29 1016.1
20260502193027 14 93 4.8 9.7 0.00 0.00 0.00 31 1016.2
20260502192525 14 91 6.4 12.9 0.00 0.00 0.00 30 1016.3
20260502192044 14 90 8.0 20.9 0.00 0.00 0.00 30 1016.2
20260502191522 15 104 6.4 11.3 0.00 0.00 0.00 29 1016.2
20260502191020 13 108 3.2 11.3 0.00 0.00 0.00 30 1016.3
20260502190540 13 92 8.0 16.1 0.00 0.00 0.00 29 1016.4
20260502190018 13 93 8.0 14.5 0.00 0.00 0.00 30 1016.6
20260502185536 13 102 6.4 11.3 0.00 0.00 0.00 32 1016.7
20260502185035 13 125 4.8 14.5 0.00 0.00 0.00 30 1016.7
20260502184553 13 98 8.0 14.5 0.00 0.00 0.00 31 1016.7
20260502184032 13 113 6.4 14.5 0.00 0.00 0.00 30 1016.9
20260502183531 12 96 6.4 11.3 0.00 0.00 0.00 31 1017.0
20260502183029 12 76 8.0 16.1 0.00 0.00 0.00 30 1017.1
20260502182528 13 93 6.4 12.9 0.00 0.00 0.00 30 1017.1
20260502182026 12 90 6.4 11.3 0.00 0.00 0.00 29 1017.2
20260502181545 13 86 4.8 14.5 0.00 0.00 0.00 31 1017.2
20260502181023 13 109 6.4 16.1 0.00 0.00 0.00 31 1017.1
20260502180522 13 101 6.4 12.9 0.00 0.00 0.00 30 1017.1
20260502164017 11 85 6.4 9.7 0.00 0.00 0.00 35 1018.2
20260502163515 11 92 4.8 9.7 0.00 0.00 0.00 36 1018.3
20260502163034 10 82 3.2 9.7 0.00 0.00 0.00 36 1018.4
20260502162613 10 102 4.8 9.7 0.00 0.00 0.00 35 1018.4
20260502162031 10 80 8.0 17.7 0.00 0.00 0.00 35 1018.6
20260502161530 11 105 8.0 14.5 0.00 0.00 0.00 34 1018.5
20260502161029 11 100 6.4 12.9 0.00 0.00 0.00 36 1018.6
20260502160547 10 92 6.4 9.7 0.00 0.00 0.00 36 1018.7
20260502152034 10 104 6.4 9.7 0.00 0.00 0.00 38 1019.2
20260502151553 9 63 6.4 11.3 0.00 0.00 0.00 40 1019.0
20260502151031 9 46 8.0 11.3 0.00 0.00 0.00 39 1019.1
20260502150529 8 83 6.4 9.7 0.00 0.00 0.00 39 1019.3
20260502130534 0 103 4.8 6.4 0.00 0.00 0.00 81 1020.0
20260502123526 -2 41 4.8 8.0 0.00 0.00 0.00 95 1020.2
20260502123125 -2 22 4.8 6.4 0.00 0.00 0.00 93 1020.2
20260502122523 -2 31 4.8 6.4 0.00 0.00 0.00 94 1020.2
20260502122021 -2 65 4.8 6.4 0.00 0.00 0.00 94 1020.1
20260502121520 -2 83 3.2 6.4 0.00 0.00 0.00 94 1020.2
20260502121018 -3 94 4.8 8.0 0.00 0.00 0.00 94 1020.1
20260502120517 -3 94 4.8 6.4 0.00 0.00 0.00 94 1020.2
20260502115534 -3 89 3.2 6.4 0.00 0.00 0.00 95 1020.1
20260502115033 -3 89 3.2 4.8 0.00 0.00 0.00 95 1020.0
20260502114531 -3 78 3.2 6.4 0.00 0.00 0.00 95 1020.1
20260502114030 -3 91 4.8 6.4 0.00 0.00 0.00 95 1019.9
20260502113528 -3 90 3.2 6.4 0.00 0.00 0.00 95 1020.0
20260502113107 -3 140 4.8 6.4 0.00 0.00 0.00 95 1020.0
20260502112525 -3 129 4.8 8.0 0.00 0.00 0.00 95 1019.9
20260502112024 -3 115 3.2 8.0 0.00 0.00 0.00 95 1020.0
20260502111522 -3 110 1.6 3.2 0.00 0.00 0.00 94 1019.9
20260502111021 -3 104 3.2 6.4 0.00 0.00 0.00 94 1019.9
20260502110519 -3 110 4.8 8.0 0.00 0.00 0.00 94 1019.9
20260502110018 -3 152 4.8 8.0 0.00 0.00 0.00 94 1019.9
20260502105516 -3 104 4.8 8.0 0.00 0.00 0.00 94 1019.9
20260502105115 -3 116 3.2 4.8 0.00 0.00 0.00 94 1020.0
20260502104553 -3 125 3.2 11.3 0.00 0.00 0.00 94 1020.0
20260502104032 -3 140 6.4 9.7 0.00 0.00 0.00 94 1020.0
20260502103551 -3 99 3.2 6.4 0.00 0.00 0.00 94 1020.1
20260502103029 -3 56 6.4 11.3 0.00 0.00 0.00 94 1020.0
20260502102548 -3 37 4.8 8.0 0.00 0.00 0.00 94 1020.1
20260502102026 -3 84 4.8 8.0 0.00 0.00 0.00 93 1020.1
20260502101524 -3 100 3.2 9.7 0.00 0.00 0.00 93 1020.1
20260502101023 -3 92 3.2 4.8 0.00 0.00 0.00 93 1020.0
20260502100521 -3 108 1.6 6.4 0.00 0.00 0.00 93 1020.0
20260502091526 -3 112 3.2 4.8 0.00 0.00 0.00 93 1020.0
20260502091025 -3 103 3.2 4.8 0.00 0.00 0.00 93 1019.9
20260502090523 -3 108 3.2 4.8 0.00 0.00 0.00 93 1019.9